Location: *
(41.7492°S, 135.4150°W)
Time: 23:04:16
(UTC+00:00)

METEOR M2 - Pass Details

Date: 11 July 2022
Orbit: 819 x 827 km, 98.4° (Epoch: 08 August)

Event Time Altitude Azimuth Distance (km) Brightness Sun altitude
Exits shadow 02:50:28 15° 116° (ESE) 2,102 ? -11.6°
Maximum altitude 02:52:30 18° 89° (E) 1,922 ? -11.9°
Drops below altitude 10° 02:56:08 10° 46° (NE) 2,430 ? -12.6°
Sets 02:59:13 0° 27° (NNE) 3,354 ? -13.1°
